Temperature
28 28 28 28 28 28 27 28 28 28 28 27 27 26 25 23 22 22 21 20 19 19 18 18 17 17 17 17 17 16 16 16 16 15 15 15 15 15 15 15 15 15 15 14
27 28 28 27 27 27 27 27 27 27 27 27 26 25 24 23 22 21 21 20 19 18 18 18 17 17 17 16 16 16 16 16 16 15 15 15 15 15 15 15 14 14 14 14
27 27 27 26 27 27 27 27 27 27 27 26 25 24 24 23 22 21 20 19 19 18 18 17 17 17 16 16 16 16 15 15 15 15 15 14 14 14 14 14 14 14 14 14
26 26 25 27 27 27 27 27 27 26 26 25 25 24 23 22 22 21 20 19 18 18 17 17 17 17 16 16 16 15 15 15 15 15 15 14 14 14 14 14 14 14 14 14
26 25 26 26 26 26 26 26 26 26 25 24 23 23 23 21 20 20 19 18 18 17 17 17 16 16 16 16 15 15 15 15 15 15 15 14 14 14 14 14 14 14 14 14
25 24 25 26 26 25 25 25 25 24 24 23 22 24 24 20 19 19 18 17 17 17 16 16 16 16 16 16 15 15 15 15 15 15 14 14 14 14 14 14 14 14 14 14
24 24 26 25 25 24 24 24 23 23 23 22 22 23 21 19 18 18 17 17 16 16 16 16 16 15 15 15 15 15 15 15 15 15 14 14 14 14 14 14 14 14 14 14
24 24 24 24 24 24 23 22 22 21 21 21 20 20 19 18 17 17 16 16 16 16 16 15 15 15 15 15 15 15 15 15 15 14 14 14 14 14 13 13 13 14 13 13
24 24 23 22 22 22 21 21 20 20 20 20 19 19 18 17 17 16 16 15 15 15 15 15 15 15 15 15 15 15 15 15 14 14 14 14 14 13 13 13 13 13 13 13
23 23 22 21 21 20 20 20 19 19 19 19 18 18 17 17 16 16 15 15 15 15 15 15 15 15 14 14 14 15 14 14 14 14 14 14 13 13 13 13 13 13 13 13
22 22 21 20 20 19 19 19 19 18 18 18 18 17 17 16 16 15 15 15 15 15 15 15 14 14 14 14 14 14 14 14 14 14 14 13 13 13 13 13 13 12 12 12
22 21 21 20 19 19 18 18 18 18 18 17 17 17 16 16 15 15 15 14 14 14 14 14 14 14 14 14 14 14 14 14 14 14 13 13 13 13 13 13 12 12 12 12
19 19 19 19 18 18 18 18 17 17 17 17 16 16 16 15 15 15 14 14 14 14 14 14 14 14 14 14 14 14 14 13 14 14 13 13 13 13 13 13 12 12 12 12
17 17 18 18 18 17 17 17 17 17 17 16 16 15 15 15 14 14 14 14 14 13 13 13 13 13 13 14 14 13 13 13 13 13 13 13 13 13 13 13 13 12 12 12
16 17 17 17 17 17 17 17 16 16 16 16 15 15 15 14 14 14 14 13 13 13 13 13 13 13 13 13 13 13 13 13 13 13 13 13 13 13 13 13 13 12 12 12
16 16 16 16 16 16 16 16 16 16 15 15 15 14 14 14 14 13 13 13 13 13 13 13 13 13 13 13 13 13 13 13 13 13 13 13 13 13 13 13 12 12 12 12
16 16 16 16 16 15 15 15 15 15 15 14 14 14 14 13 13 13 13 13 13 13 12 12 12 12 12 12 13 13 13 13 13 13 13 13 13 13 13 12 12 12 12 12
15 15 15 15 15 15 15 14 14 14 14 14 13 13 13 13 13 13 13 12 12 12 12 12 12 12 12 12 12 13 13 13 13 13 13 12 12 12 12 12 12 12 12 11
15 14 14 14 14 14 14 14 14 13 13 13 13 13 13 13 13 12 12 12 12 12 12 12 12 12 12 12 12 12 13 13 13 12 12 12 12 12 12 12 12 12 12 11
14 14 14 14 14 14 14 13 13 13 12 12 13 12 12 12 12 12 12 12 12 12 12 12 12 12 12 12 12 12 13 13 12 12 12 12 12 12 12 12 12 12 11 11
13 13 13 13 13 13 13 13 13 12 12 12 12 12 12 12 12 12 12 12 12 12 11 11 12 11 12 12 12 12 12 12 12 12 12 12 12 12 12 12 12 11 11 11
12 12 12 12 12 12 12 12 12 12 12 12 12 12 12 11 11 11 11 11 11 11 11 11 11 12 12 12 12 12 12 12 12 12 12 12 12 12 11 11 11 11 11 11
12 12 12 12 12 12 12 12 12 12 12 12 12 12 11 11 11 11 11 11 11 11 11 11 11 12 12 11 12 12 12 12 12 12 12 12 11 11 11 11 11 11 11 10
11 11 11 11 11 11 11 11 11 11 11 12 12 11 11 11 11 11 11 11 11 11 11 11 11 11 11 11 11 12 12 12 12 12 12 11 11 11 11 11 11 10 10 10
11 11 11 11 11 11 11 11 11 11 11 11 11 11 11 11 11 11 11 11 10 11 11 11 11 11 11 11 11 11 11 11 11 11 11 11 11 11 10 10 10 10 10 10
11 11 11 11 11 11 11 11 11 11 11 11 11 11 11 10 10 10 10 10 10 10 10 10 10 11 11 11 11 11 11 11 10 10 10 10 10 10 10 10 10 10 9 9
11 11 11 11 11 11 11 11 11 11 11 11 11 11 10 10 10 10 10 10 10 10 10 10 10 10 10 10 10 10 10 10 10 10 10 10 10 10 10 9 9 9 9 9
Wind_Speed
9 8 7 8 8 9 11 11 12 9 8 5 4 4 4 3 3 2 2 2 1 1 1 2 2 2 3 3 4 4 4 4 4 3 3 3 3 3 3 4 4 4 4 4
11 10 10 11 10 11 11 11 12 11 9 4 3 3 3 4 3 3 3 2 2 1 1 2 2 3 3 3 4 4 4 4 3 2 2 2 2 2 2 3 3 4 4 4
11 10 11 13 11 10 10 9 10 11 8 4 4 4 5 5 5 4 3 2 2 2 2 2 2 3 3 3 3 4 4 3 3 2 2 3 3 2 3 3 3 3 4 4
9 9 14 7 4 7 10 10 9 8 7 6 5 5 5 4 4 3 2 2 2 2 2 2 2 2 2 2 3 3 3 3 3 3 3 4 3 2 3 3 3 3 3 3
9 12 12 8 5 6 9 11 7 7 6 4 3 4 5 3 3 3 3 2 2 2 1 1 2 2 2 3 3 4 4 3 3 4 4 4 3 3 3 3 3 3 3 3
10 13 13 6 3 4 8 10 4 5 6 5 5 7 4 2 2 2 2 2 1 1 1 1 1 2 2 3 2 3 3 3 3 3 4 4 4 3 2 3 3 3 3 3
13 14 10 2 2 4 8 5 3 4 5 7 7 6 2 1 2 2 2 1 1 1 1 1 2 2 2 2 2 2 2 2 2 3 4 4 3 2 2 3 3 3 3 3
11 13 9 2 3 4 5 5 4 5 5 5 4 2 1 1 2 2 2 2 1 1 2 2 2 3 2 2 2 2 2 2 2 3 3 2 2 2 2 3 3 3 3 3
8 6 1 0 3 3 5 6 5 5 5 5 5 4 3 3 3 3 3 3 2 2 2 2 2 2 3 2 2 2 2 2 2 3 2 2 2 2 3 3 3 3 3 3
7 5 2 3 4 4 5 5 6 5 5 5 6 5 5 4 4 4 4 4 3 3 3 3 3 3 3 3 3 3 3 3 3 3 2 2 2 2 2 2 3 3 3 3
8 5 4 4 4 5 5 5 5 5 5 6 6 6 5 4 4 4 4 4 4 4 4 4 4 3 3 3 3 4 4 3 3 3 2 2 2 2 3 2 2 3 3 3
7 5 6 7 6 6 5 5 5 5 6 6 6 6 5 5 5 5 5 5 5 5 5 5 4 4 3 3 4 4 4 4 4 3 3 2 2 2 1 2 2 3 3 4
7 8 8 8 7 7 7 6 6 6 6 6 6 6 6 5 5 5 5 5 5 5 4 4 4 4 4 4 4 5 5 4 4 3 3 3 2 3 2 2 4 4 4 3
8 8 8 7 7 7 7 6 6 6 6 5 5 5 5 5 5 6 6 6 5 4 4 5 5 5 4 4 5 6 6 4 5 4 4 3 3 3 3 2 2 1 3 4
7 8 8 8 7 7 6 6 6 5 5 5 5 5 5 6 6 6 6 5 5 5 5 5 5 5 4 5 5 6 5 4 4 4 4 4 3 3 3 3 2 1 1 3
8 7 7 7 7 7 6 6 6 6 5 5 5 5 5 5 5 5 5 5 5 5 4 5 5 4 5 5 6 6 5 5 5 5 4 4 3 3 3 2 2 2 1 1
7 7 7 7 7 6 6 6 6 6 5 5 5 5 4 4 4 5 5 5 5 4 5 5 5 4 4 5 5 5 4 4 6 6 4 3 3 3 3 3 3 2 2 1
7 8 7 7 6 6 6 5 5 5 5 5 4 5 5 5 4 4 4 4 4 4 5 5 4 4 4 5 5 4 4 4 4 4 3 3 3 3 3 3 3 3 2 2
6 6 6 6 5 5 5 4 4 3 3 3 3 3 3 3 3 3 3 3 4 4 4 3 3 5 5 5 5 5 5 4 4 4 4 3 4 4 3 3 3 3 2 1
4 4 4 4 4 3 3 2 2 1 1 2 2 2 2 2 2 2 2 3 3 3 3 3 4 5 5 5 6 5 4 4 5 4 4 4 3 3 3 3 3 2 2 2
4 3 3 2 3 2 1 1 1 0 0 1 2 2 2 2 2 2 3 3 2 2 3 3 4 4 4 3 6 5 4 4 4 4 4 3 3 3 3 3 3 3 3 3
4 3 3 2 1 1 1 0 0 0 1 1 1 1 1 1 1 2 3 3 2 1 3 3 3 1 2 4 5 5 5 4 4 4 4 3 3 3 3 3 3 3 3 3
4 3 2 2 2 1 1 1 0 1 1 1 1 1 0 0 1 1 2 1 1 1 2 3 1 2 2 5 5 4 4 4 4 4 3 3 2 2 3 3 3 2 2 2
4 3 3 2 2 1 2 2 2 1 1 1 1 1 0 0 1 1 1 0 1 1 2 0 2 1 5 4 4 3 3 3 3 3 2 2 2 2 2 2 2 1 1 1
3 3 3 2 2 1 1 1 1 1 1 1 1 1 0 0 1 1 1 1 1 0 2 1 4 4 4 3 2 2 2 2 2 2 2 2 2 2 2 2 1 1 1 1
3 3 3 3 3 2 1 0 0 0 0 1 1 1 0 0 1 1 1 1 1 1 2 2 1 3 3 2 2 3 3 2 2 2 2 2 2 2 2 2 2 1 1 1
3 3 2 3 2 2 1 1 1 1 1 1 1 1 1 1 1 1 1 1 1 1 2 2 2 2 2 2 2 2 1 1 1 1 2 2 2 2 2 3 2 2 1 1
Wind_Direction
255 261 255 253 251 243 248 263 272 279 276 275 268 256 238 220 214 225 215 217 227 242 217 205 201 205 217 220 210 206 202 204 213 225 230 235 234 235 234 232 234 237 244 247
243 245 248 252 252 249 250 257 263 268 271 280 267 244 229 215 213 226 230 238 249 265 260 228 207 211 216 216 209 206 207 205 202 217 234 240 242 241 242 244 243 239 240 248
247 241 247 245 245 249 251 251 259 267 276 271 251 239 242 229 224 232 234 244 251 255 256 257 234 215 221 216 210 203 201 199 192 200 235 242 242 244 249 248 245 247 249 251
250 241 247 251 242 254 260 259 260 270 274 270 265 255 248 228 231 239 242 248 253 253 259 258 264 217 207 200 198 195 190 193 203 205 235 247 237 236 248 251 256 254 255 256
245 246 250 240 231 242 254 261 259 263 265 264 268 253 234 223 247 250 243 245 251 256 263 263 264 218 188 195 197 197 195 199 204 209 225 241 237 231 245 250 254 255 248 249
244 254 255 252 221 240 252 251 248 253 247 241 242 257 256 232 240 240 241 237 238 253 271 232 234 206 197 203 210 215 213 212 209 206 219 231 235 233 239 245 250 259 258 258
245 252 254 251 154 223 244 280 323 266 244 235 248 278 299 228 213 212 218 223 238 251 259 244 220 204 208 214 228 244 229 210 196 202 209 215 222 230 239 250 258 258 258 255
242 249 247 129 188 247 304 332 307 280 256 251 264 261 226 197 202 205 211 214 233 258 274 254 219 205 211 224 238 233 213 203 200 215 224 205 206 225 239 249 247 247 250 255
246 256 341 201 274 306 315 305 297 281 268 250 243 239 229 222 221 221 223 222 228 238 251 240 221 211 225 238 239 227 221 217 214 219 217 214 218 228 228 229 249 256 256 264
253 241 251 261 281 288 292 289 288 279 265 247 245 239 233 230 226 225 229 226 226 230 232 229 227 228 235 229 224 217 221 228 219 216 210 210 240 243 250 251 258 261 265 272
248 256 258 253 286 293 290 290 287 275 261 251 241 236 232 232 229 226 228 227 229 235 237 232 233 236 235 226 222 225 226 231 234 228 220 224 233 254 248 258 264 260 270 278
259 263 271 276 286 291 280 276 275 271 265 253 240 233 231 231 230 227 227 228 230 234 237 227 227 232 232 227 227 226 227 232 238 235 229 233 230 239 191 239 193 215 252 276
285 290 288 284 283 282 273 267 262 255 255 254 247 233 229 230 227 226 228 229 231 234 235 224 219 223 228 228 230 232 231 232 243 240 235 237 238 243 245 213 194 194 209 230
281 281 279 278 280 282 274 268 261 256 253 250 243 233 227 228 224 226 229 230 228 230 231 231 224 223 226 231 233 233 234 224 233 238 242 243 243 244 246 245 236 229 188 176
281 280 281 285 284 281 273 263 260 255 246 243 239 231 226 225 224 226 226 223 222 225 228 231 230 230 231 234 237 235 235 234 235 244 243 241 243 242 243 245 244 224 197 163
288 287 285 283 280 279 272 262 257 257 252 247 241 234 232 229 220 219 219 218 223 230 229 235 236 235 235 237 241 237 229 218 239 248 242 235 236 242 240 240 238 230 222 205
288 287 290 289 286 281 276 270 266 262 257 254 247 234 225 219 214 216 219 219 225 233 236 238 238 237 238 241 248 246 241 213 209 236 243 240 240 242 242 241 240 239 228 150
285 286 285 285 285 281 280 276 269 266 257 254 245 224 218 218 220 220 224 222 222 233 240 239 243 246 240 244 249 252 246 234 232 231 234 239 248 249 248 243 237 237 235 169
295 296 295 291 290 287 282 278 279 269 254 242 232 223 220 223 219 211 218 223 230 243 257 254 240 243 238 245 248 236 238 235 233 231 231 218 230 240 242 244 244 237 233 238
317 309 302 298 293 285 280 286 293 283 253 220 199 197 205 214 208 200 208 231 244 268 268 260 248 247 243 236 237 238 233 228 229 233 234 238 241 245 245 244 239 235 228 231
341 333 320 310 306 305 298 292 279 271 186 160 149 162 187 202 202 205 228 243 250 268 262 233 239 248 245 248 228 236 229 229 227 225 230 238 246 251 251 252 241 231 227 224
348 344 337 333 336 339 337 327 273 111 93 91 97 98 117 160 209 231 251 270 265 251 249 240 240 247 273 269 241 234 224 224 227 228 232 240 247 250 247 245 245 241 232 226
357 0 357 357 5 16 9 12 50 132 116 115 112 84 59 298 259 261 266 278 273 234 249 262 331 115 242 248 243 239 233 231 233 235 235 238 244 249 255 255 254 244 227 220
4 12 13 9 22 45 40 26 29 48 79 137 126 117 132 210 271 274 297 45 8 340 272 293 103 191 252 250 245 244 245 242 240 244 242 240 243 245 253 258 261 245 217 212
10 6 16 12 357 1 33 32 38 43 53 69 81 101 185 299 298 321 355 17 49 283 289 188 179 218 242 254 256 263 259 252 253 261 255 245 246 248 240 232 232 239 229 213
4 359 1 347 348 335 317 292 275 297 14 48 53 49 29 350 329 344 347 358 13 327 318 320 265 228 232 247 254 260 263 235 210 219 228 235 238 237 219 202 202 218 217 209
355 356 351 344 339 326 314 300 302 320 325 332 338 6 23 13 347 349 340 333 336 323 318 314 302 284 277 276 280 281 266 243 229 234 244 240 234 226 213 200 196 188 192 188
Height
1479 1477 1478 1480 1481 1482 1484 1482 1482 1481 1481 1482 1483 1487 1490 1493 1495 1496 1497 1498 1499 1499 1499 1499 1500 1499 1500 1500 1501 1501 1501 1501 1502 1502 1502 1502 1503 1502 1502 1502 1502 1502 1502 1501
1483 1479 1479 1481 1480 1479 1480 1480 1480 1480 1480 1480 1484 1487 1489 1491 1493 1494 1495 1497 1497 1498 1498 1497 1497 1497 1497 1498 1498 1498 1498 1499 1499 1500 1499 1500 1500 1500 1500 1499 1499 1499 1499 1499
1483 1479 1480 1483 1477 1477 1477 1476 1478 1480 1479 1480 1483 1486 1488 1489 1491 1492 1494 1495 1496 1496 1495 1495 1495 1495 1495 1495 1495 1495 1496 1496 1497 1497 1498 1498 1498 1497 1497 1497 1497 1496 1496 1496
1480 1485 1494 1476 1471 1473 1475 1474 1475 1477 1478 1481 1483 1485 1487 1488 1489 1491 1492 1493 1493 1493 1493 1493 1493 1493 1492 1493 1493 1493 1494 1494 1494 1494 1495 1495 1494 1494 1495 1495 1494 1494 1493 1493
1480 1482 1479 1472 1472 1473 1476 1475 1474 1476 1479 1481 1483 1484 1484 1486 1488 1489 1490 1491 1491 1492 1491 1491 1491 1490 1490 1491 1491 1492 1492 1492 1492 1491 1492 1492 1492 1491 1492 1492 1492 1491 1491 1490
1479 1484 1483 1472 1470 1473 1475 1476 1474 1476 1479 1481 1482 1480 1480 1484 1486 1487 1488 1489 1489 1489 1489 1489 1489 1489 1489 1489 1489 1489 1490 1489 1489 1489 1489 1489 1489 1489 1489 1489 1489 1489 1488 1487
1477 1478 1469 1468 1471 1473 1479 1476 1475 1476 1477 1479 1479 1480 1481 1483 1484 1485 1486 1486 1486 1486 1487 1487 1487 1487 1487 1487 1487 1487 1487 1487 1487 1487 1487 1487 1487 1487 1487 1486 1486 1486 1485 1484
1475 1477 1474 1470 1472 1474 1475 1475 1476 1476 1477 1478 1479 1480 1480 1481 1482 1483 1484 1484 1484 1484 1484 1484 1485 1485 1485 1485 1485 1485 1485 1485 1485 1485 1485 1485 1485 1484 1484 1484 1483 1483 1482 1482
1468 1470 1471 1472 1473 1475 1476 1476 1476 1475 1476 1477 1477 1478 1478 1479 1480 1481 1481 1481 1482 1482 1481 1482 1482 1483 1483 1483 1483 1483 1483 1483 1483 1483 1483 1482 1482 1482 1481 1481 1481 1480 1480 1479
1469 1467 1471 1472 1473 1474 1475 1474 1474 1474 1474 1475 1475 1475 1476 1476 1477 1478 1478 1479 1479 1479 1479 1479 1480 1480 1480 1480 1481 1481 1481 1481 1481 1481 1480 1480 1479 1479 1479 1478 1478 1477 1477 1476
1469 1469 1471 1471 1472 1472 1472 1472 1472 1472 1472 1472 1473 1473 1473 1474 1474 1474 1475 1475 1476 1476 1476 1476 1477 1477 1478 1478 1478 1478 1479 1479 1479 1479 1478 1477 1477 1477 1476 1476 1475 1474 1474 1474
1466 1469 1469 1469 1470 1470 1470 1469 1470 1469 1469 1470 1470 1470 1470 1470 1471 1471 1472 1472 1472 1473 1473 1473 1474 1474 1475 1475 1476 1476 1477 1477 1477 1477 1476 1475 1474 1474 1473 1473 1471 1471 1470 1470
1470 1469 1468 1467 1468 1468 1467 1467 1466 1466 1466 1466 1466 1466 1466 1467 1467 1468 1468 1469 1469 1469 1470 1470 1471 1471 1472 1473 1473 1473 1474 1474 1474 1474 1473 1472 1472 1472 1471 1470 1469 1468 1467 1467
1468 1468 1466 1465 1465 1465 1464 1464 1464 1463 1463 1463 1463 1463 1463 1463 1463 1464 1464 1465 1466 1466 1466 1467 1468 1468 1469 1469 1470 1471 1471 1472 1471 1471 1471 1470 1470 1470 1469 1467 1467 1466 1465 1464
1466 1465 1464 1463 1462 1461 1461 1460 1460 1460 1459 1459 1459 1459 1459 1459 1460 1460 1461 1461 1462 1463 1463 1464 1465 1465 1466 1466 1467 1467 1468 1469 1468 1468 1468 1468 1468 1467 1467 1466 1465 1464 1464 1463
1463 1462 1461 1460 1459 1458 1457 1457 1457 1456 1456 1456 1456 1455 1455 1456 1456 1456 1457 1458 1459 1459 1460 1460 1461 1461 1462 1463 1463 1464 1465 1465 1465 1466 1466 1466 1465 1465 1464 1464 1463 1462 1462 1461
1460 1458 1457 1456 1455 1455 1455 1454 1454 1453 1453 1453 1452 1452 1452 1452 1453 1453 1454 1455 1456 1456 1456 1457 1457 1458 1458 1459 1460 1461 1462 1462 1462 1463 1463 1463 1463 1462 1462 1461 1461 1461 1460 1459
1457 1456 1455 1454 1453 1452 1451 1451 1450 1450 1449 1450 1449 1449 1449 1449 1449 1450 1451 1452 1452 1453 1453 1454 1454 1454 1455 1456 1457 1458 1459 1459 1459 1460 1460 1460 1460 1460 1460 1460 1459 1458 1458 1457
1454 1453 1452 1451 1451 1450 1449 1448 1447 1447 1446 1446 1446 1446 1446 1446 1447 1447 1448 1449 1450 1450 1451 1451 1450 1451 1452 1452 1453 1454 1455 1456 1457 1457 1457 1457 1457 1457 1457 1457 1457 1456 1456 1455
1451 1450 1449 1449 1448 1447 1446 1445 1445 1444 1444 1443 1444 1443 1443 1444 1444 1445 1445 1446 1447 1447 1448 1448 1448 1448 1449 1449 1450 1452 1453 1453 1454 1454 1454 1455 1455 1455 1454 1454 1454 1454 1453 1453
1448 1448 1447 1446 1445 1444 1444 1443 1443 1442 1442 1442 1442 1441 1442 1442 1442 1443 1443 1443 1443 1444 1444 1444 1445 1445 1446 1447 1447 1449 1450 1450 1451 1451 1452 1452 1452 1452 1452 1451 1451 1451 1451 1450
1447 1446 1445 1444 1443 1443 1442 1442 1441 1441 1441 1440 1441 1440 1440 1440 1441 1441 1441 1441 1441 1441 1441 1442 1442 1443 1443 1444 1445 1446 1447 1448 1448 1449 1449 1449 1449 1449 1449 1448 1448 1448 1448 1448
1446 1445 1444 1443 1442 1441 1441 1440 1440 1440 1440 1439 1439 1439 1439 1439 1440 1440 1440 1440 1439 1439 1439 1439 1440 1440 1440 1441 1443 1443 1444 1445 1445 1446 1446 1446 1446 1446 1446 1446 1446 1445 1445 1445
1446 1445 1444 1442 1442 1441 1441 1440 1440 1440 1439 1439 1439 1439 1439 1439 1439 1439 1439 1438 1437 1437 1437 1437 1437 1437 1438 1439 1440 1440 1441 1442 1442 1443 1443 1443 1443 1444 1444 1443 1443 1442 1442 1442
1446 1445 1444 1442 1442 1442 1441 1440 1440 1440 1439 1439 1439 1439 1439 1439 1439 1438 1438 1437 1436 1435 1435 1435 1434 1435 1436 1437 1437 1438 1438 1439 1440 1440 1440 1441 1441 1441 1441 1441 1441 1441 1440 1440
1446 1445 1444 1443 1442 1442 1441 1441 1440 1440 1439 1439 1439 1438 1438 1438 1438 1437 1436 1436 1435 1434 1434 1433 1433 1434 1434 1435 1435 1436 1436 1437 1437 1438 1438 1438 1438 1438 1439 1439 1438 1439 1438 1438
1446 1445 1444 1443 1442 1442 1441 1441 1440 1440 1439 1439 1438 1438 1438 1437 1436 1436 1435 1435 1434 1433 1433 1433 1432 1432 1433 1434 1434 1434 1435 1435 1436 1436 1436 1436 1436 1436 1436 1436 1436 1436 1436 1436